Regional Weather Roundup
Issued by NWS Sioux Falls, SD

Home | Current Version | Previous Version | Text Only | Print | Product List | Glossary On
Versions: 1 2 3 4 5 6 7 8 9 10 11 12 13 14 15 16 17 18 19 20 21 22 23 24 25 26 27 28 29 30 31 32 33 34 35 36 37 38 39 40 41 42 43 44 45 46 47 48 49 50
000
ASUS43 KFSD 202110
RWRFSD

WEATHER ROUNDUP FOR SE SOUTH DAKOTA/SW MINNESOTA/NW IOWA
NATIONAL WEATHER SERVICE SIOUX FALLS SD
400 PM CDT THU JUL 20 2017

NOTE: "FAIR" INDICATES FEW OR NO CLOUDS BELOW 12,000 FEET WITH NO
SIGNIFICANT WEATHER AND OR OBSTRUCTIONS TO VISIBILITY.


SDZ038>040-050-052>070-202200-
SOUTHEAST SOUTH DAKOTA

CITY           SKY/WX    TMP DP  RH WIND       PRES   REMARKS
BROOKINGS      MOSUNNY   88  66  48 SE15      30.02F
CHAMBERLAIN    MOSUNNY   93  70  46 E10G17    29.97F HX  99
HURON          SUNNY     90  66  45 SE13      29.97F
MADISON        FAIR      82  68  61 SE13      30.03S
MITCHELL       MOSUNNY   90  73  57 SE10G22   29.98F HX  98
SIOUX FALLS    LGT RAIN  83  72  69 E13       30.00F
WINNER         FAIR      98  64  32 SE16G23   29.97F HX 100
YANKTON        CLOUDY    85  74  69 E8        29.99F
$$

MNZ071-072-080-081-089-090-097-098-202200-
SOUTHWEST MINNESOTA

CITY           SKY/WX    TMP DP  RH WIND       PRES   REMARKS
FAIRMONT       PTSUNNY   85  76  74 N8        30.02F
JACKSON        CLOUDY    84  72  65 CALM      30.04F
LUVERNE        CLOUDY    84  64  51 E6        30.02S
MARSHALL       CLOUDY    86  68  54 E9        30.03F
MONTEVIDEO     SUNNY     90  66  45 S6        30.03F
PIPESTONE      MOSUNNY   86  68  54 SE7       30.04S
REDWOOD FALLS  CLOUDY    84  66  54 CALM      30.03S
TRACY          CLOUDY    85  70  60 E5        30.04F
WINDOM         MOSUNNY   84  66  54 N5        30.04F
WORTHINGTON    CLOUDY    85  70  60 NE10      30.04F
$$

IAZ001>003-012>014-020>022-031-032-NEZ013-014-SDZ071-202200-
NORTHWEST IOWA

CITY           SKY/WX    TMP DP  RH WIND       PRES   REMARKS
CHEROKEE       CLOUDY    88  76  67 NE9       29.99S HX  99
DENISON        PTSUNNY   93  77  59 VRB5      29.97F HX 107
ESTHERVILLE    CLOUDY    85  74  69 NE10      30.01F
ORANGE CITY    CLOUDY    88  72  58 E5        30.02R
SHELDON        CLOUDY    86  70  58 NE7       30.00S
SIOUX CITY     CLOUDY    92  76  59 NE6       29.98R HX 104
SPENCER        CLOUDY    92  69  47 E13       30.00S HX  97
STORM LAKE     CLOUDY    86  75  70 E10       30.00F HX  95
$$

ABBREVIATIONS USED IN REMARKS
   TC - TEMPERATURE IN CELSIUS
  WCI - WIND CHILL INDEX
   HX - HEAT INDEX
  VSB - VISIBILITY





USA.gov is the U.S. government's official web portal to all federal, state and local government web resources and services.